Regional Weather Roundup
Issued by NWS

Home | Current Version | Previous Version | Graphics & Text | Print | Product List | Glossary On
Versions: 1 2 3 4 5 6 7 8 9 10 11 12 13 14 15 16 17 18 19 20 21 22 23 24 25 26 27 28 29 30 31 32 33 34 35 36 37 38 39 40 41 42 43 44 45 46 47 48 49 50
000
ASUS43 KLSX 241410
RWRMO

WEATHER SUMMARY FOR MISSOURI
NATIONAL WEATHER SERVICE SPRINGFIELD MO
900 AM CDT SAT SEP 24 2016

NOTE: "FAIR" INDICATES FEW OR NO CLOUDS BELOW 12,000 FEET WITH NO
       SIGNIFICANT WEATHER AND/OR OBSTRUCTIONS TO VISIBILITY.
       CURRENT SKY AND/OR WEATHER CONDITIONS ARE NOT AVAILABLE FOR
       CHILLICOTHE AND FARMINGTON.

MOZ001>031-035>038-043-044-053-054-241500-
...NORTHERN AND WESTERN MISSOURI...

CITY           SKY/WX    TMP DP  RH WIND       PRES   REMARKS
KANSAS CTY INT MOSUNNY   76  67  73 S12       30.04R
KANSAS C DTWN  MOSUNNY   78  68  71 S6        30.03S
LEE`S SUMMIT   SUNNY     75  67  76 S10       30.06R
ST JOSEPH      SUNNY     76  68  76 S9        30.02S
CHILLICOTHE      N/A     73  67  81 SE5       30.07S
KIRKSVILLE     SUNNY     71  66  84 SE6       30.11R

$$
MOZ066>068-077>081-088>096-101>105-241500-
...SOUTHWEST MISSOURI...

CITY           SKY/WX    TMP DP  RH WIND       PRES   REMARKS
SPRINGFIELD    SUNNY     76  67  73 S10       30.10S
JOPLIN         PTSUNNY   77  70  79 S9        30.06F
BRANSON        SUNNY     73  68  83 SE3       30.12S

$$
MOZ032>034-039>042-045>050-055>058-069>072-241500-
...CENTRAL MISSOURI...

CITY           SKY/WX    TMP DP  RH WIND       PRES   REMARKS
COLUMBIA       SUNNY     73  68  84 SE7       30.10S
JEFFERSON CITY SUNNY     71  68  90 SE3       30.10S
ROLLA          SUNNY     73  67  81 S8        30.12R
SEDALIA        MOSUNNY   75  68  78 S8        30.09S
WHITEMAN AFB   MOSUNNY   73  73 100 S6        30.06S
OSAGE BEACH    MOSUNNY   72  67  84 SE3       30.11R

$$
MOZ051-052-059>065-241500-
...EAST CENTRAL MISSOURI...

CITY           SKY/WX    TMP DP  RH WIND       PRES   REMARKS
ST LOUIS INTL  MOSUNNY   81  66  60 CALM      30.12S
SPIRIT OF STL  MOSUNNY   73  68  84 CALM      30.10F
ST CHARLES     SUNNY     75  71  87 E3        30.11S

$$
MOZ072>076-082>087-097>100-106>115-241500-
...SOUTH CENTRAL AND SOUTHEAST MISSOURI...

CITY           SKY/WX    TMP DP  RH WIND       PRES   REMARKS
CAPE GIRARDEAU MOSUNNY   74  69  85 CALM      30.11S
FARMINGTON     SUNNY     72  68  87 CALM      30.14S
WEST PLAINS    SUNNY     75  67  76 CALM      30.15S

$$




USA.gov is the U.S. government's official web portal to all federal, state and local government web resources and services.